SCP
0 0 0 0 0 0 0 0 0 0 0 0 0 0 0 0 0 0 0 0 0 0 0 0 0 0 2 3 3 2 2 1 0 0 0 0 0 0 0 0 0 0 0 0
0 0 0 0 0 0 0 0 0 0 0 0 0 0 0 0 0 0 0 0 0 0 0 0 0 0 1 2 2 2 2 1 0 0 0 0 0 0 0 0 0 0 0 0
0 0 0 0 0 0 0 0 0 0 0 0 0 0 0 0 0 0 0 0 0 0 0 0 0 0 1 1 2 2 2 1 0 0 0 0 0 0 0 0 0 0 0 0
0 0 0 0 0 0 0 0 0 0 0 0 0 0 0 0 0 0 0 0 0 0 0 0 0 0 0 1 2 3 2 1 1 1 0 0 0 0 0 0 0 0 0 0
0 0 0 0 0 0 0 0 0 0 0 0 0 0 0 0 0 0 0 0 0 0 0 0 0 0 0 1 2 3 3 2 1 1 0 0 0 0 0 0 0 0 0 0
0 0 0 0 0 0 0 0 0 0 0 0 0 0 0 0 0 0 0 0 0 0 0 0 0 0 0 0 2 3 3 2 2 1 1 0 0 0 0 0 0 0 0 0
0 0 0 0 0 0 0 0 0 0 0 0 0 0 0 0 0 0 0 0 0 0 0 0 0 0 0 0 1 3 3 3 2 1 1 1 0 0 0 0 0 0 0 0
0 0 0 0 0 0 0 0 0 0 0 0 0 0 0 0 0 0 0 0 0 0 0 0 0 0 0 0 1 2 3 3 3 2 1 1 0 0 0 0 0 0 0 0
0 0 0 0 0 0 0 0 0 0 0 0 0 0 0 0 0 0 0 0 0 0 0 0 0 0 0 0 1 2 3 3 3 2 1 1 1 0 0 0 0 0 0 0
0 0 0 0 0 0 0 0 0 0 0 0 0 0 0 0 0 0 0 0 0 0 0 0 0 0 0 0 0 1 2 3 3 2 2 1 1 0 0 0 0 0 0 0
0 0 0 0 0 0 0 0 0 0 0 0 0 0 0 0 0 0 0 0 0 0 0 0 0 0 0 0 0 1 2 3 3 3 2 1 1 1 0 0 0 0 0 0
0 0 0 0 0 0 0 0 0 0 0 0 0 0 0 0 0 0 0 0 0 0 0 0 0 0 0 0 0 0 1 1 2 2 2 2 1 1 1 0 0 0 0 0
0 0 0 0 0 0 0 0 0 0 0 0 0 0 0 0 0 0 0 0 0 0 0 0 0 0 0 0 0 0 0 0 1 2 2 2 1 1 1 0 0 0 0 0
0 0 0 0 0 0 0 0 0 0 0 0 0 0 0 0 0 0 0 0 0 0 0 0 0 0 0 0 0 0 0 0 0 1 1 1 1 1 1 1 0 0 0 0
0 0 0 0 0 0 0 0 0 0 0 0 0 0 0 0 0 0 0 0 0 0 0 0 0 0 0 0 0 0 0 0 0 0 1 1 1 1 1 1 0 0 0 0
0 0 0 0 0 0 0 0 0 0 0 0 0 0 0 0 0 0 0 0 0 0 0 0 0 0 0 0 0 0 0 0 0 0 0 1 1 1 1 1 1 0 0 0
0 0 0 0 0 0 0 0 0 0 0 0 0 0 0 0 0 0 0 0 0 0 0 0 0 0 0 0 0 0 0 0 0 0 0 0 1 1 1 1 1 1 0 0
0 0 0 0 0 0 0 0 0 0 0 0 0 0 0 0 0 0 0 0 0 0 0 0 0 0 0 0 0 0 0 0 0 0 0 0 0 0 1 1 1 1 0 0
0 0 0 0 0 0 0 0 0 0 0 0 0 0 0 0 0 0 0 0 0 0 0 0 0 0 0 0 0 0 0 0 0 0 0 0 0 0 0 1 1 1 1 0
0 0 0 0 0 0 0 0 0 0 0 0 0 0 0 0 0 0 0 0 0 0 0 0 0 0 0 0 0 0 0 0 0 0 0 0 0 0 0 1 1 1 1 0
0 0 0 0 0 0 0 0 0 0 0 0 0 0 0 0 0 0 0 0 0 0 0 0 0 0 0 0 0 0 0 0 0 0 0 0 0 0 0 1 1 1 1 0
0 0 0 0 0 0 0 0 0 0 0 0 0 0 0 0 0 0 0 0 0 0 0 0 0 0 0 0 0 0 0 0 0 0 0 0 0 0 0 0 0 0 1 1
0 0 0 0 0 0 0 0 0 0 0 0 0 0 0 0 0 0 0 0 0 0 0 0 0 0 0 0 0 0 0 0 0 0 0 0 0 0 0 0 0 0 0 0
0 0 0 0 0 0 0 0 0 0 0 0 0 0 0 0 0 0 0 0 0 0 0 0 0 0 0 0 0 0 0 0 0 0 0 0 0 0 0 0 0 0 0 0
0 0 0 0 0 0 0 0 0 0 0 0 0 0 0 0 0 0 0 0 0 0 0 0 0 0 0 0 0 0 0 0 0 0 0 0 0 0 0 0 0 0 0 0
0 0 0 0 0 0 0 0 0 0 0 0 0 0 0 0 0 0 0 0 0 0 0 0 0 0 0 0 0 0 0 0 0 0 0 0 0 0 0 0 0 0 0 0
Wind_Speed
3 4 9 12 12 8 6 6 8 8 6 7 13 18 17 12 9 11 12 11 12 14 13 11 12 12 12 13 15 17 16 15 13 11 10 10 10 8 8 8 10 11 10 11
2 10 12 8 8 8 8 9 9 8 5 6 10 15 14 11 12 13 13 13 14 13 10 10 10 11 13 15 15 16 17 17 16 13 11 9 8 7 7 6 9 11 11 11
11 6 6 8 8 9 11 11 10 8 6 5 6 11 11 10 10 11 12 12 12 14 13 11 10 11 12 14 16 16 17 17 17 13 8 5 4 3 5 7 8 10 11 11
9 9 6 8 10 10 12 9 9 8 5 6 4 8 10 8 10 12 13 12 13 12 12 11 11 11 12 14 14 15 16 16 16 14 12 13 11 11 11 8 8 8 11 11
8 7 9 12 12 10 7 5 7 8 6 7 6 7 10 5 10 12 12 12 12 11 11 11 12 13 12 12 12 13 14 15 15 15 16 15 12 10 6 6 8 9 9 10
7 5 7 8 7 8 5 2 3 3 3 10 11 9 10 7 11 10 10 10 11 10 10 10 9 8 8 9 10 11 13 14 15 16 16 16 15 11 9 9 10 9 7 8
6 8 6 4 4 5 4 4 2 4 5 10 6 8 12 10 10 10 11 11 10 8 7 7 7 8 8 9 10 11 13 14 14 15 16 16 16 15 15 13 12 10 7 8
5 7 8 7 9 8 9 9 8 7 6 5 4 10 10 9 8 8 9 8 6 6 6 7 8 9 8 10 11 12 14 13 14 15 15 14 14 11 11 12 10 11 9 9
6 7 3 6 5 9 7 9 6 3 3 4 7 8 9 6 6 6 6 6 7 7 7 7 7 7 8 9 11 13 14 13 14 15 14 13 13 12 11 10 10 8 7 7
4 5 4 4 2 5 7 6 4 6 6 7 7 7 7 5 7 7 6 7 8 7 6 6 6 7 7 8 8 9 11 13 12 13 13 11 13 13 11 10 11 10 9 8
3 5 4 3 8 9 6 7 6 5 5 6 6 9 8 9 8 8 8 7 6 7 7 7 7 6 6 5 6 7 8 9 10 12 12 11 11 11 10 10 11 11 9 9
5 4 6 8 6 5 7 8 8 7 7 6 6 10 5 5 5 5 6 6 5 6 6 5 5 4 4 5 6 7 8 9 10 10 10 11 10 10 10 11 10 10 10 10
4 4 4 4 3 3 5 6 6 5 4 6 8 11 4 3 5 4 5 5 5 5 5 4 4 4 6 6 7 7 8 9 8 9 10 10 10 11 11 11 10 9 9 9
3 5 8 9 6 5 7 8 8 7 7 9 12 13 12 9 9 9 8 8 6 5 4 4 5 5 6 6 7 7 8 8 7 8 9 10 11 12 11 10 9 9 9 9
3 6 8 10 8 7 10 12 12 14 13 13 14 16 17 11 9 8 7 7 7 7 6 6 6 6 6 6 6 7 7 7 7 8 9 11 10 9 9 9 9 8 9 9
3 4 5 9 9 10 12 14 16 17 16 17 16 21 15 10 8 9 9 8 9 8 8 8 7 7 7 8 8 7 7 7 7 8 9 9 8 9 9 9 9 8 8 8
4 4 4 8 7 7 13 15 16 14 14 14 19 22 12 10 11 10 10 9 10 10 9 8 8 8 8 8 8 8 8 6 7 8 8 8 9 9 10 9 9 9 9 8
7 5 4 4 3 13 11 6 11 14 15 14 15 14 12 13 12 10 9 9 10 9 9 8 8 7 7 6 6 6 5 6 7 7 7 8 8 9 8 9 9 9 7 8
10 8 5 4 7 11 10 6 8 11 14 11 14 14 12 10 8 10 8 7 9 9 9 8 7 7 6 6 6 5 5 6 6 7 8 8 9 9 9 10 10 7 7 7
9 8 7 6 7 10 9 4 3 4 11 8 9 11 9 4 6 11 7 7 8 8 7 6 6 5 5 5 4 5 6 6 8 9 8 8 8 9 10 10 8 6 6 7
7 7 10 10 10 11 8 3 2 6 9 4 6 8 7 7 10 10 7 6 6 6 6 6 4 4 5 4 4 5 5 8 8 6 5 6 7 8 8 7 6 6 6 6
9 8 9 8 10 13 5 3 6 8 4 3 4 5 6 8 9 8 7 7 7 6 5 4 4 4 4 3 4 5 6 6 3 3 4 5 6 6 6 7 6 6 7 7
9 10 7 9 10 6 4 7 6 4 5 5 5 6 6 6 7 7 7 7 7 6 5 4 4 5 4 2 3 5 5 3 3 3 4 4 4 5 6 7 8 7 7 6
6 4 5 8 10 8 7 7 6 5 7 7 6 6 6 7 7 7 7 7 6 6 5 4 4 4 5 3 3 4 2 2 3 4 4 4 5 5 5 5 6 7 7 6
7 4 6 10 9 7 8 8 8 8 8 8 7 6 6 7 8 8 7 6 5 6 5 4 4 5 5 3 3 2 2 3 4 4 4 4 4 5 5 4 4 5 5 7
7 7 8 10 7 7 8 7 6 6 7 7 7 7 6 6 7 7 6 6 5 5 5 4 4 4 4 3 3 2 2 4 5 4 4 4 4 4 4 4 3 2 3 5
Wind_Direction
193 185 211 211 209 212 214 227 243 251 246 228 240 251 259 258 252 248 245 242 238 236 236 225 215 206 198 193 191 190 189 185 180 181 184 186 193 193 194 196 195 193 192 189
205 229 228 224 219 219 232 245 254 274 265 240 253 259 260 250 243 242 240 237 237 240 241 231 217 202 196 193 192 191 190 186 186 189 189 189 185 188 192 193 196 196 193 191
213 233 219 224 226 223 235 233 240 258 305 291 282 279 263 258 245 247 243 237 234 231 230 226 215 207 199 195 193 191 192 189 190 184 173 158 151 160 182 196 199 200 196 195
231 238 230 227 230 218 241 233 241 251 265 271 242 274 268 257 262 252 246 239 235 233 228 222 214 209 203 201 194 192 190 189 188 181 178 177 185 196 200 196 197 197 198 197
227 208 213 225 228 215 232 231 239 244 240 259 246 255 272 257 255 254 247 242 239 233 224 219 213 210 205 196 190 190 187 189 186 185 187 188 197 202 191 184 191 199 202 202
245 234 217 223 233 221 223 233 266 253 222 250 231 226 268 231 231 248 250 244 239 234 227 223 219 208 203 191 187 185 185 189 187 188 190 193 196 192 184 191 196 201 202 204
255 245 233 204 218 228 191 163 227 234 224 242 213 218 250 240 235 232 242 244 238 232 223 219 210 204 201 192 189 186 186 190 189 190 194 197 198 195 196 197 200 200 201 206
224 247 219 206 203 203 205 188 197 212 225 262 223 229 248 247 249 249 249 250 243 231 222 217 212 202 199 198 192 189 191 193 190 192 197 198 197 198 203 202 200 203 207 209
211 247 227 216 206 181 190 210 206 214 260 257 248 266 291 273 267 261 257 250 244 234 226 221 216 206 200 199 199 194 194 195 194 195 195 197 197 199 203 200 200 203 205 199
194 252 255 232 208 214 189 174 162 194 217 240 261 250 242 253 255 260 258 246 246 244 238 232 221 214 210 207 203 197 197 197 196 195 196 198 200 202 201 196 200 202 201 195
199 232 267 220 205 209 190 190 195 200 207 209 247 256 223 219 233 242 252 252 251 247 242 235 229 220 213 207 199 199 199 199 199 198 198 198 199 199 196 200 203 202 197 194
202 208 242 239 240 227 209 205 190 206 227 219 235 263 254 235 251 244 255 265 270 263 251 245 234 222 216 213 210 206 203 203 204 200 197 199 198 194 196 202 202 197 196 195
183 197 240 284 273 230 221 216 214 219 221 224 231 258 282 294 297 292 287 286 281 279 271 265 247 230 222 218 214 212 209 209 206 195 195 197 196 195 199 202 197 192 192 191
205 208 218 225 229 209 229 234 223 213 226 238 237 255 275 282 287 294 295 293 290 286 278 268 258 247 234 222 217 216 216 209 200 195 194 198 201 199 199 195 191 190 189 188
197 230 239 253 258 239 237 237 230 228 231 240 250 251 258 264 268 277 286 290 292 290 285 271 258 252 245 235 226 219 218 209 198 195 200 206 202 195 191 190 190 186 187 189
197 231 243 257 252 252 256 243 233 234 236 242 256 262 259 262 265 272 274 278 279 279 275 268 261 256 246 234 227 222 219 212 197 200 208 205 194 190 190 190 185 182 184 182
213 213 236 259 258 264 253 234 227 230 228 230 244 254 267 267 263 262 267 268 271 273 270 264 257 249 246 237 224 219 217 205 196 203 206 199 192 191 191 184 180 185 185 178
207 210 229 257 239 244 247 220 221 233 243 237 245 257 256 256 261 259 256 260 268 272 271 267 261 257 251 239 226 220 208 198 198 203 204 198 191 190 184 179 185 187 180 181
207 202 213 224 244 267 275 241 211 220 246 239 247 260 266 269 278 270 263 258 260 266 269 265 259 250 248 238 221 203 202 198 200 206 206 200 190 184 181 184 187 184 177 182
203 200 210 219 235 249 255 240 218 210 255 247 242 258 269 276 268 271 287 277 270 273 274 274 272 256 251 247 209 192 202 201 210 212 208 197 187 184 186 187 182 176 176 180
185 202 215 225 239 257 258 251 139 202 243 256 232 245 254 242 246 272 289 284 279 277 275 274 271 261 253 240 195 202 207 216 221 212 198 189 186 184 182 175 170 164 162 161
194 200 209 210 229 247 243 179 202 231 255 269 261 256 256 258 269 276 279 282 284 284 284 282 275 274 274 234 198 212 222 225 205 182 184 186 182 172 163 163 164 161 160 163
210 206 202 208 226 243 215 208 232 244 258 267 271 276 272 273 276 275 274 277 279 280 286 288 273 279 286 253 211 221 235 208 170 173 183 178 167 164 164 165 164 162 164 169
243 214 217 244 254 259 262 261 265 259 260 266 265 272 274 275 279 281 280 282 285 291 290 293 288 282 284 276 251 238 229 180 171 181 181 171 164 164 163 165 166 169 172 174
235 211 226 246 260 277 273 261 261 267 270 272 270 267 267 274 278 277 280 280 284 291 293 293 283 277 278 279 266 255 205 176 182 183 178 172 167 165 163 164 172 176 184 180
218 219 229 246 245 244 262 266 266 267 272 275 276 278 277 268 273 279 280 283 285 287 293 292 285 279 283 282 277 269 216 184 176 176 176 172 164 157 155 147 114 98 138 158